Погода в Большой Усе

Россия / Пермский край     56°44′16″N   55°05′58″E
темп.,
°C
ветер,
м/с
пор.,
м/с
влажн.,
%
обл.,
%
осадки,
мм/ч
давл.,
гПа
погр.,
м
27 февраля, сб
сб2723:00−20ююв5149684 0.0 1017361
02:00−18ююв8179396 0.0 1014522
05:00−17юв8169298 0.0 1011559
08:00−16юв81494100 0.4 1007675
11:00−14юв71193100 1.3 1006790
14:00−12юв6991100 0.8 1004834
17:00−11вюв5891100 1.1 1004762
20:00−12в5109499 0.3 1004375
28 февраля, вс
вс2823:00−14в6109395 0.4 1005314
02:00−17всв6109395 0.1 1005299
05:00−17св6109497 0.2 1005331
08:00−16св61094100 0.3 1005384
11:00−15св699298 0.6 1006425
14:00−13св6990100 0.1 1007515
17:00−14св6989100 0.1 1008531
20:00−16ссв5119291 0.0 1010363
1 марта, пн
пн123:00−19ссв5109471 0.0 1013213
02:00−21ссв49960 0.0 1015148
05:00−23ссв47950 0.0 1017128
08:00−24ссв46940 0.0 1018104
11:00−20ссв35920 0.0 1020240
14:00−15ссв34842 0.0 1020405
17:00−14с238747 0.0 1020429
20:00−20ссз119858 0.0 102020
2 марта, вт
вт223:00−21ююз119929 0.0 102020
02:00−21ююз23990 0.0 101820
05:00−22ю3410026 0.0 101757
08:00−23ю4910093 0.0 1015168
11:00−19ю6119696 0.0 1013296
14:00−16ю7119399 0.0 1011399
17:00−15ю71294100 0.1 1008459
20:00−14ю61294100 0.4 1007548
3 марта, ср
ср323:00−13ю51194100 0.8 1006486
02:00−14ю51094100 0.2 1005374
05:00−15ююв4995100 0.4 1005299
08:00−15ююв4796100 0.3 1005246
11:00−13ююв3494100 0.6 1006245
14:00−10юв228899 0.1 1005389
17:00−9юв1186100 0.1 1006403
20:00−12с229398 0.0 100621